Tracking 28052 objects as of 24-Sep-2023
HD Live streaming from Space Station
objects crossing your sky now

STARLINK-6343

Track STARLINK-6343 now!
10-day predictions
STARLINK-6343 is classified as:


NORAD ID: 57362
Int'l Code: 2023-099AL
Perigee: 527.6 km
Apogee: 529.6 km
Inclination: 43.0 °
Period: 95.1 minutes
Semi major axis: 6899 km
RCS: Unknown
Launch date: July 16, 2023
Source: United States (US)
Launch site: AIR FORCE EASTERN TEST RANGE (AFETR)
Your satellite tracking list
Your tracking list is empty




NASA's NSSDC Master Catalog

Two Line Element Set (TLE):
1 57362U 23099AL  23266.58334491 -.00932369  00000-0 -53293-1 0  9999
2 57362  42.9977  76.5763 0001483 249.5940  24.7413 15.14838008 11894
Source of the keplerian elements: AFSPC